CW1118 Weather Reports


time (UTC)temp
C
wind
direction
speed
KPH
gust
KPH
rain 1hr
cm
rain 24hr
cm
rain mn
cm
humidity
%
barometer
mb
20260510172956 32 223 4.8 17.7 0.00 0.00 0.00 57 1015.6
20260510171458 32 202 9.7 17.7 0.00 0.00 0.00 59 1015.8
20260510170956 31 211 6.4 16.1 0.00 0.00 0.00 61 1016.0
20260510165956 31 212 4.8 14.5 0.00 0.00 0.00 63 1016.0
20260510165459 31 200 9.7 14.5 0.00 0.00 0.00 62 1016.2
20260510164958 31 235 4.8 14.5 0.00 0.00 0.00 62 1016.2
20260510164457 31 190 4.8 16.1 0.00 0.00 0.00 64 1016.2
20260510163459 31 210 6.4 12.9 0.00 0.00 0.00 65 1016.5
20260510162456 30 210 1.6 14.5 0.00 0.00 0.00 68 1016.6
20260510161959 30 213 3.2 14.5 0.00 0.00 0.00 67 1016.6
20260510161458 30 190 6.4 11.3 0.00 0.00 0.00 68 1016.6
20260510160958 30 181 4.8 9.7 0.00 0.00 0.00 71 1016.6
20260510160458 30 148 3.2 9.7 0.00 0.00 0.00 69 1016.6
20260510160001 30 122 4.8 9.7 0.00 0.00 0.00 68 1016.6
20260510155457 30 201 4.8 11.3 0.00 0.00 0.00 70 1016.6
20260510154959 29 199 6.4 11.3 0.00 0.00 0.00 71 1016.6
20260510153954 29 196 8.0 14.5 0.00 0.00 0.00 71 1016.7
20260510153459 28 200 4.8 11.3 0.00 0.00 0.00 72 1016.7
20260510152957 28 208 1.6 16.1 0.00 0.00 0.00 71 1016.7
20260510151958 28 207 8.0 17.7 0.00 0.00 0.00 74 1016.7
20260510151458 28 200 1.6 8.0 0.00 0.00 0.00 73 1016.7
20260510150958 28 211 1.6 16.1 0.00 0.00 0.00 74 1016.7
20260510150001 28 202 6.4 11.3 0.00 0.00 0.00 75 1016.7
20260510145457 28 192 8.0 12.9 0.00 0.00 0.00 75 1016.6
20260510144957 27 194 4.8 12.9 0.00 0.00 0.00 75 1016.6
20260510144459 28 194 8.0 11.3 0.00 0.00 0.00 74 1016.6
20260510143958 27 181 6.4 11.3 0.00 0.00 0.00 74 1016.6
20260510143458 28 200 8.0 14.5 0.00 0.00 0.00 74 1016.6
20260510142958 28 208 8.0 14.5 0.00 0.00 0.00 75 1016.6
20260510142457 27 210 6.4 12.9 0.00 0.00 0.00 76 1016.6
20260510141959 27 193 9.7 17.7 0.00 0.00 0.00 76 1016.6
20260510141458 27 205 9.7 17.7 0.00 0.00 0.00 76 1016.6
20260510140955 27 199 6.4 16.1 0.00 0.00 0.00 77 1016.6
20260510140455 27 208 8.0 14.5 0.00 0.00 0.00 78 1016.6
20260510135457 26 194 6.4 11.3 0.00 0.00 0.00 80 1016.5
20260510134957 26 207 6.4 11.3 0.00 0.00 0.00 81 1016.5
20260510134457 26 211 8.0 11.3 0.00 0.00 0.00 81 1016.5
20260510133958 25 202 4.8 9.7 0.00 0.00 0.00 83 1016.4
20260510132957 25 205 3.2 11.3 0.00 0.00 0.00 84 1016.4
20260510132454 25 196 3.2 11.3 0.00 0.00 0.00 85 1016.3
20260510131956 25 196 3.2 11.3 0.00 0.00 0.00 85 1016.3
20260510131458 24 219 3.2 9.7 0.00 0.00 0.00 86 1016.3
20260510130959 24 200 3.2 9.7 0.00 0.00 0.00 87 1016.3
20260510130457 24 207 4.8 9.7 0.00 0.00 0.00 87 1016.3
20260510125956 23 184 4.8 8.0 0.00 0.00 0.00 88 1016.3
20260510125458 23 169 3.2 9.7 0.00 0.00 0.00 88 1016.1
20260510124957 23 202 3.2 9.7 0.00 0.00 0.00 90 1016.1
20260510123957 23 211 4.8 11.3 0.00 0.00 0.00 91 1016.1
20260510123458 22 203 6.4 11.3 0.00 0.00 0.00 92 1016.1
20260510122955 22 196 4.8 9.7 0.00 0.00 0.00 94 1016.1
20260510122457 22 202 4.8 11.3 0.00 0.00 0.00 94 1016.0
20260510121958 22 208 6.4 11.3 0.00 0.00 0.00 96 1016.0
20260510121457 21 219 3.2 6.4 0.00 0.00 0.00 97 1016.0
20260510120957 21 228 3.2 6.4 0.00 0.00 0.00 97 1015.7
20260510120456 21 169 1.6 3.2 0.00 0.00 0.00 97 1015.7
20260510120001 21 169 0.0 1.6 0.00 0.00 0.00 96 1015.7
20260510115457 20 169 0.0 0.0 0.00 0.00 0.00 96 1015.5
20260510114958 20 169 0.0 0.0 0.00 0.00 0.00 96 1015.5
20260510114454 20 169 0.0 0.0 0.00 0.00 0.00 95 1015.5
20260510113957 20 169 0.0 0.0 0.00 0.00 0.00 95 1015.2
20260510113458 20 169 0.0 0.0 0.00 0.00 0.00 95 1015.2
20260510112957 20 169 0.0 0.0 0.00 0.00 0.00 95 1015.2
20260510112458 20 169 0.0 0.0 0.00 0.00 0.00 94 1015.0
20260510111957 20 169 0.0 0.0 0.00 0.00 0.00 94 1015.0
20260510111500 20 169 0.0 0.0 0.00 0.00 0.00 94 1015.0
20260510110957 21 169 0.0 0.0 0.00 0.00 0.00 95 1014.6
20260510110455 21 169 0.0 0.0 0.00 0.00 0.00 95 1014.6
20260510110000 21 169 0.0 0.0 0.00 0.00 0.00 94 1014.6
20260510105457 21 169 0.0 0.0 0.00 0.00 0.00 94 1014.5
20260510104457 21 169 0.0 0.0 0.00 0.00 0.00 93 1014.5
20260510103458 21 169 0.0 0.0 0.00 0.00 0.00 93 1014.5
20260510102958 21 169 0.0 0.0 0.00 0.00 0.00 93 1014.5
20260510102457 21 169 0.0 0.0 0.00 0.00 0.00 94 1014.0
20260510101957 21 169 0.0 0.0 0.00 0.00 0.00 94 1014.0
20260510100958 21 169 0.0 0.0 0.00 0.00 0.00 94 1014.0
20260510100459 21 169 0.0 0.0 0.00 0.00 0.00 94 1014.0
20260510100000 21 169 0.0 1.6 0.00 0.00 0.00 94 1014.0
20260510095457 21 169 0.0 1.6 0.00 0.00 0.00 94 1013.8
20260510094959 22 169 0.0 1.6 0.00 0.00 0.00 94 1013.8
20260510094726 22 169 0.0 1.6 0.00 0.00 0.00 95 1013.8
20260510093957 22 169 0.0 1.6 0.00 0.00 0.00 94 1013.6
20260510093458 22 169 0.0 1.6 0.00 0.00 0.00 95 1013.6
20260510092458 21 169 0.0 3.2 0.00 0.00 0.00 94 1013.6
20260510091958 21 169 0.0 3.2 0.00 0.00 0.00 94 1013.6
20260510091457 22 163 0.0 3.2 0.00 0.00 0.00 94 1013.6
20260510090954 22 163 0.0 3.2 0.00 0.00 0.00 94 1013.5
20260510090458 22 163 1.6 3.2 0.00 0.00 0.00 93 1013.5
20260510085954 22 163 0.0 3.2 0.00 0.00 0.00 93 1013.5
20260510085500 22 163 0.0 3.2 0.00 0.00 0.00 93 1013.3
20260510084957 22 161 1.6 1.6 0.00 0.00 0.00 93 1013.3
20260510084458 22 161 0.0 1.6 0.00 0.00 0.00 93 1013.3
20260510083957 22 161 0.0 1.6 0.00 0.00 0.00 93 1013.1
20260510083458 22 161 0.0 3.2 0.00 0.00 0.00 93 1013.1
20260510082958 22 161 0.0 3.2 0.00 0.00 0.00 93 1013.1
20260510082458 22 161 0.0 4.8 0.00 0.00 0.00 93 1013.0
20260510081957 22 161 1.6 4.8 0.00 0.00 0.00 93 1013.0
20260510081456 22 153 1.6 3.2 0.00 0.00 0.00 93 1013.0
20260510080958 22 149 1.6 6.4 0.00 0.00 0.00 93 1013.1
20260510080456 22 148 3.2 8.0 0.00 0.00 0.00 93 1013.1
20260510080007 22 188 1.6 8.0 0.00 0.00 0.00 94 1013.1
20260510075454 22 207 3.2 6.4 0.00 0.00 0.00 94 1013.1
20260510074457 22 190 1.6 4.8 0.00 0.00 0.00 94 1013.1
20260510073958 22 198 1.6 8.0 0.00 0.00 0.00 94 1013.2
20260510073458 22 202 1.6 8.0 0.00 0.00 0.00 94 1013.2
20260510072957 22 136 1.6 3.2 0.00 0.00 0.00 94 1013.2
20260510072455 22 136 1.6 4.8 0.00 0.00 0.00 94 1013.4
20260510071457 22 51 1.6 3.2 0.00 0.00 0.00 95 1013.4
20260510070957 22 50 1.6 3.2 0.00 0.00 0.00 95 1013.5
20260510070457 21 50 1.6 3.2 0.00 0.00 0.00 96 1013.5
20260510065953 21 50 1.6 3.2 0.00 0.00 0.00 96 1013.5
20260510065457 21 50 0.0 1.6 0.00 0.00 0.00 96 1013.5
20260510065000 21 49 0.0 1.6 0.00 0.00 0.00 96 1013.5
20260510064457 21 50 0.0 1.6 0.00 0.00 0.00 96 1013.5
20260510063957 21 49 0.0 3.2 0.00 0.00 0.00 96 1014.0
20260510062957 21 49 1.6 3.2 0.00 0.00 0.00 97 1014.0
20260510062458 20 38 1.6 1.6 0.00 0.00 0.00 96 1014.1
20260510061958 20 38 0.0 0.0 0.00 0.00 0.00 95 1014.1
20260510060958 20 38 0.0 0.0 0.00 0.00 0.00 95 1014.2
20260510060459 20 38 0.0 1.6 0.00 0.00 0.00 95 1014.2
20260510060001 20 38 0.0 1.6 0.00 0.00 0.00 95 1014.2
20260510055455 20 38 0.0 0.0 0.00 0.00 0.00 95 1014.5
20260510054455 20 38 0.0 1.6 0.00 0.00 0.00 93 1014.5
20260510053957 20 38 0.0 1.6 0.00 0.00 0.00 93 1014.9
20260510053457 20 38 0.0 0.0 0.00 0.00 0.00 94 1014.9
20260510052958 20 38 0.0 0.0 0.00 0.00 0.00 93 1014.9
20260510052456 20 38 0.0 0.0 0.00 0.00 0.00 93 1015.0
20260510051958 20 38 0.0 0.0 0.00 0.00 0.00 93 1015.0
20260510051457 20 38 0.0 0.0 0.00 0.00 0.00 93 1015.0
20260510050456 20 38 0.0 0.0 0.00 0.00 0.00 93 1015.1
20260510045955 20 38 0.0 0.0 0.00 0.00 0.00 93 1015.1
20260510044958 21 38 0.0 0.0 0.00 0.00 0.00 92 1015.0
20260510044458 21 38 0.0 0.0 0.00 0.00 0.00 93 1015.0
20260510043955 21 38 0.0 0.0 0.00 0.00 0.00 93 1015.3
20260510043457 21 38 0.0 0.0 0.00 0.00 0.00 92 1015.3
20260510042955 21 38 0.0 0.0 0.00 0.00 0.00 92 1015.3
20260510041958 21 38 0.0 1.6 0.00 0.00 0.00 92 1015.1
20260510041458 21 38 0.0 1.6 0.00 0.00 0.00 91 1015.1
20260510040958 21 38 0.0 0.0 0.00 0.00 0.00 92 1015.2
20260510040458 21 38 0.0 0.0 0.00 0.00 0.00 92 1015.2
20260510040002 21 38 0.0 0.0 0.00 0.00 0.00 91 1015.2
20260510035500 20 38 0.0 0.0 0.00 0.00 0.00 91 1015.5
20260510034958 20 38 0.0 0.0 0.00 0.00 0.00 91 1015.5
20260510034459 20 38 0.0 0.0 0.00 0.00 0.00 91 1015.5
20260510033955 20 38 0.0 0.0 0.00 0.00 0.00 91 1015.4
20260510033458 20 38 0.0 0.0 0.00 0.00 0.00 91 1015.4
20260510032958 20 38 0.0 0.0 0.00 0.00 0.00 90 1015.4
20260510032500 20 38 0.0 0.0 0.00 0.00 0.00 90 1015.2
20260510031957 20 38 0.0 0.0 0.00 0.00 0.00 90 1015.2
20260510031456 20 38 0.0 1.6 0.00 0.00 0.00 90 1015.2
20260510031000 20 38 0.0 1.6 0.00 0.00 0.00 90 1015.0
20260510030457 21 39 0.0 0.0 0.00 0.00 0.00 88 1015.0
20260510030002 21 39 0.0 0.0 0.00 0.00 0.00 88 1015.0
20260510025458 21 39 0.0 0.0 0.00 0.00 0.00 88 1015.0
20260510024957 21 39 0.0 0.0 0.00 0.00 0.00 88 1015.0
20260510024459 21 39 0.0 0.0 0.00 0.00 0.00 88 1015.0
20260510024001 21 39 0.0 0.0 0.00 0.00 0.00 87 1014.8
20260510023455 21 39 0.0 0.0 0.00 0.00 0.00 87 1014.8
20260510022958 21 39 0.0 0.0 0.00 0.00 0.00 87 1014.8
20260510022459 21 39 0.0 0.0 0.00 0.00 0.00 86 1014.5
20260510021957 21 39 0.0 0.0 0.00 0.00 0.00 87 1014.5
20260510021458 21 39 0.0 0.0 0.00 0.00 0.00 87 1014.5
20260510020959 21 39 0.0 0.0 0.00 0.00 0.00 86 1014.5
20260510020457 22 39 0.0 0.0 0.00 0.00 0.00 85 1014.5
20260510020002 22 39 0.0 0.0 0.00 0.00 0.00 85 1014.5
20260510015458 22 39 0.0 0.0 0.00 0.00 0.00 85 1014.5
20260510014959 22 39 0.0 0.0 0.00 0.00 0.00 85 1014.5
20260510014457 22 39 0.0 0.0 0.00 0.00 0.00 85 1014.5
20260510013957 22 39 0.0 1.6 0.00 0.00 0.00 85 1014.4
20260510013458 22 39 0.0 1.6 0.00 0.00 0.00 84 1014.4
20260510012957 22 38 0.0 0.0 0.00 0.00 0.00 84 1014.4
20260510011458 22 38 0.0 0.0 0.00 0.00 0.00 83 1014.2
20260510010957 22 38 0.0 1.6 0.00 0.00 0.00 83 1014.1
20260510010458 22 38 0.0 1.6 0.00 0.00 0.00 83 1014.1
20260510010002 22 38 0.0 0.0 0.00 0.00 0.00 83 1014.1
20260510005457 23 38 0.0 0.0 0.00 0.00 0.00 82 1013.8
20260510005000 23 38 0.0 1.6 0.00 0.00 0.00 82 1013.8
20260510004500 23 38 0.0 8.0 0.00 0.00 0.00 82 1013.8
20260510003957 23 17 0.0 3.2 0.00 0.00 0.00 82 1013.8
20260510002957 23 19 0.0 4.8 0.00 0.00 0.00 82 1013.8
20260510001957 23 19 0.0 4.8 0.00 0.00 0.00 81 1013.5
20260510001459 23 20 0.0 4.8 0.00 0.00 0.00 81 1013.5
20260510000958 23 298 1.6 4.8 0.00 0.00 0.00 80 1013.5
20260510000458 23 271 0.0 8.0 0.00 0.00 0.00 80 1013.5
20260509235954 23 293 1.6 9.7 0.00 0.00 0.00 80 1013.5
20260509235458 24 315 3.2 9.7 0.00 0.00 0.00 79 1013.4
20260509234958 24 57 1.6 8.0 0.00 0.00 0.00 79 1013.4
20260509234457 24 323 3.2 12.9 0.00 0.00 0.00 79 1013.4
20260509233959 24 346 4.8 12.9 0.00 0.00 0.00 79 1013.2
20260509233459 25 347 1.6 11.3 0.00 0.00 0.00 80 1013.2
20260509232958 25 360 3.2 14.5 0.00 0.00 0.00 79 1013.2
20260509232457 25 345 4.8 16.1 0.00 0.00 0.00 80 1013.3
20260509231959 25 10 3.2 16.1 0.00 0.00 0.00 80 1013.3
20260509231459 25 326 3.2 16.1 0.00 0.00 0.00 80 1013.3
20260509230955 26 350 4.8 14.5 0.00 0.00 0.00 81 1013.0
20260509230000 26 40 6.4 17.7 0.00 0.00 0.00 81 1013.0
20260509224459 27 23 4.8 20.9 0.00 0.00 0.00 78 1012.9
20260509223955 27 350 3.2 20.9 0.00 0.00 0.00 77 1012.5
20260509222957 27 5 4.8 11.3 0.00 0.00 0.00 74 1012.5
20260509222455 27 15 3.2 11.3 0.00 0.00 0.00 71 1012.5
20260509221957 27 250 3.2 12.9 0.00 0.00 0.00 70 1012.5
20260509221458 28 31 6.4 12.9 0.00 0.00 0.00 70 1012.5
20260509220958 28 322 4.8 11.3 0.00 0.00 0.00 70 1012.4
20260509220457 28 333 4.8 11.3 0.00 0.00 0.00 69 1012.4
20260509220002 28 355 4.8 9.7 0.00 0.00 0.00 69 1012.4
20260509215454 28 323 4.8 11.3 0.00 0.00 0.00 69 1012.1
20260509214458 28 347 4.8 12.9 0.00 0.00 0.00 69 1012.1
20260509213959 29 331 3.2 14.5 0.00 0.00 0.00 68 1011.9
20260509213457 30 23 4.8 14.5 0.00 0.00 0.00 66 1011.9
20260509212455 30 348 3.2 11.3 0.00 0.00 0.00 63 1011.8
20260509211957 30 22 4.8 14.5 0.00 0.00 0.00 61 1011.8
20260509210957 30 281 1.6 9.7 0.00 0.00 0.00 61 1011.8
20260509210457 31 304 3.2 11.3 0.00 0.00 0.00 60 1011.8
20260509210000 31 284 4.8 19.3 0.00 0.00 0.00 58 1011.8
20260509205458 31 330 6.4 19.3 0.00 0.00 0.00 59 1011.8
20260509204957 31 296 6.4 16.1 0.00 0.00 0.00 59 1011.8
20260509204457 31 333 4.8 14.5 0.00 0.00 0.00 59 1011.8
20260509203957 31 315 4.8 16.1 0.00 0.00 0.00 60 1011.8
20260509203457 31 316 4.8 17.7 0.00 0.00 0.00 60 1011.8
20260509202959 31 309 4.8 17.7 0.00 0.00 0.00 61 1011.8
20260509202454 30 310 3.2 22.5 0.00 0.00 0.00 63 1011.9
20260509200958 30 333 6.4 16.1 0.00 0.00 0.00 62 1011.9
20260509200500 30 298 4.8 16.1 0.00 0.00 0.00 63 1011.9
20260509200001 30 326 6.4 16.1 0.00 0.00 0.00 64 1011.9
20260509195458 30 5 3.2 12.9 0.00 0.00 0.00 65 1011.8
20260509194500 29 346 9.7 17.7 0.00 0.00 0.00 67 1011.8
20260509193959 29 292 3.2 12.9 0.00 0.00 0.00 67 1011.9
20260509193459 29 330 6.4 11.3 0.00 0.00 0.00 67 1011.9
20260509192958 29 310 4.8 9.7 0.00 0.00 0.00 68 1011.9
20260509191959 29 324 1.6 8.0 0.00 0.00 0.00 70 1012.1
20260509191455 29 53 1.6 8.0 0.00 0.00 0.00 68 1012.1
20260509190957 30 24 3.2 12.9 0.00 0.00 0.00 67 1012.1